[[{"header":{"parameterUnit":"m.s-1","parameterCategory":1,"la1":30.2991,"la2":30.254,"lo1":-89.0895,"lo2":-89.0444,"dy":0.0017,"dx":0.0017,"nx":28,"ny":28,"refTime":"2024-07-30T09:00:00:Z","depth":0,"parameterNumber":2,"parameterNumberName":"U-component_of_WINDS"},"data":[0,0,0,0,0,0,0,0,0,0,0,0,0,0,0,0,0,0,0,0,0,0,0,0,0,0,0,0,0,0,0,0,0,0,0,0,0,0,0,0,0,0,0,0,0,0,0,0,0,0,0,0,0,0,0,0,0,0,2.6284,2.6285,0,2.6423,2.6424,2.6426,2.6409,2.6406,2.6404,2.6402,2.6546,2.6552,2.6558,0,0,0,0,0,0,0,0,0,0,0,0,0,2.6006,2.6011,2.6284,2.6286,2.6287,2.6422,2.6424,2.6426,2.6409,2.6406,2.6403,2.6401,2.6544,2.6552,2.6559,0,0,0,0,0,0,0,0,0,0,0,0,0,2.6134,2.6013,2.6284,2.6295,2.6297,2.6422,2.6424,2.6427,2.641,2.6406,2.6403,2.64,2.6542,2.6551,2.656,2.6683,0,0,2.6587,2.6591,0,0,0,0,0,0,0,0,2.6127,2.6144,2.6291,2.6294,2.6297,2.6395,2.6379,2.6513,2.641,2.6367,2.6402,2.6398,2.6499,2.6511,2.6545,2.669,2.6696,2.6588,2.6593,2.6597,2.66,0,0,0,0,0,0,0,2.6118,2.6138,2.6339,2.6294,2.6297,2.6294,2.6308,2.6405,2.645,2.6371,2.637,2.6386,2.65,2.6536,2.6548,2.6698,2.6587,2.6595,2.6601,2.6604,2.6951,2.6954,0,0,0,0,0,0,2.6106,2.6131,2.6334,2.6343,2.6202,2.6301,2.6318,2.6367,2.6449,2.6458,2.6389,2.6385,2.6523,2.6538,2.6553,2.6702,2.6597,2.6605,2.661,2.6947,2.6951,2.6956,0,0,0,0,0,0,2.61,2.6124,2.6329,2.6237,2.6262,2.631,2.6365,2.6371,2.6408,2.6463,2.6471,2.6417,2.652,2.654,2.665,2.6707,2.6609,2.6617,2.6942,2.6948,2.6953,2.7002,0,0,0,0,0,0,2.6092,2.6122,2.6169,2.6238,2.6267,2.6423,2.6369,2.6377,2.6423,2.6419,2.6492,2.6501,2.6519,2.6637,2.6659,2.6718,2.6624,2.6937,2.6945,2.6952,2.6996,2.7009,2.702,0,0,0,0,0,2.6082,2.6177,2.6171,2.6196,2.6327,2.6427,2.6444,2.6462,2.6428,2.6475,2.6511,2.6499,2.6697,2.6649,2.6673,2.6735,2.6934,2.6943,2.6951,2.699,2.7006,2.702,0,0,0,0,0,0,2.6115,2.6187,2.6181,2.6301,2.6358,2.6424,2.6484,2.6479,2.6547,2.6541,2.6561,2.6578,2.6689,2.6723,2.6668,2.6859,2.6811,2.6825,2.6832,2.6848,2.686,2.6849,2.6632,0,0,0,0,0,2.6136,2.621,2.6269,2.637,2.6399,2.6437,2.6481,2.649,2.655,2.6574,2.6618,2.6677,2.6753,2.6802,2.6875,2.7001,2.7016,2.7055,2.7068,2.7077,2.7089,2.7158,2.7176,2.6984,2.6984,2.6984,0,0,2.6181,2.6229,2.6275,2.6378,2.6423,2.65,2.6457,2.6541,2.6598,2.6587,2.6693,2.6728,2.6795,2.6913,2.6967,2.6945,2.7146,2.7088,2.7096,2.7102,2.7169,2.7187,2.7203,2.699,2.6989,2.6988,0,0,2.6301,2.6345,2.6434,2.648,2.6548,2.6573,2.6594,2.6661,2.6683,2.6789,2.6783,2.6852,2.6982,2.703,2.7072,2.7211,2.7202,2.7234,2.7298,2.7364,2.7379,2.7393,2.7442,2.746,2.7245,2.7246,2.7246,0,2.6348,2.6464,2.648,2.6565,2.661,2.6603,2.6693,2.6737,2.6826,2.6858,2.6832,2.6994,2.7039,2.7169,2.7202,2.7236,2.7262,2.7225,2.7376,2.7389,2.7402,2.745,2.7468,2.7249,2.7249,2.7248,2.7248,0,2.6518,2.6598,2.6662,2.6747,2.68,2.6886,2.6917,2.6969,2.6973,2.7001,2.711,2.7163,2.7247,2.7278,2.7284,2.7408,2.7392,2.7371,2.7323,2.7424,2.7468,2.7487,2.7254,2.7253,2.7252,2.7251,0,0,2.6664,2.6756,2.6779,2.6818,2.6893,2.6955,2.7042,2.7123,2.7166,2.7228,2.7301,2.7411,2.7392,2.7439,2.745,2.7509,2.7615,2.748,2.7482,2.7503,2.7755,2.7771,2.7791,2.761,2.7613,2.7616,2.7749,0,2.6791,2.6944,2.6961,2.7097,2.7171,2.7166,2.7241,2.7295,2.7324,2.7391,2.7422,2.75,2.7468,2.7496,2.7554,2.759,2.7666,2.7581,2.7679,2.7682,2.7661,2.7815,2.7832,2.7955,2.7767,2.777,2.7772,0,2.6961,2.7026,2.7169,2.7233,2.7265,2.7333,2.7408,2.7472,2.7534,2.755,2.7603,2.7607,2.7697,2.7645,2.777,2.7711,2.7753,2.7776,2.7781,2.7791,2.7733,2.7829,2.7995,2.8013,2.78,2.7798,2.7796,0,2.7052,2.7176,2.7278,2.7311,2.7388,2.7436,2.7471,2.7529,2.7576,2.7642,2.7673,2.7749,2.7791,2.785,2.7874,2.7834,2.7997,2.7948,2.8013,2.8013,2.8048,2.8045,2.8223,2.8075,2.8075,2.8074,2.8074,0,2.7193,2.7281,2.732,2.7382,2.748,2.75,2.7597,2.763,2.7682,2.7751,2.7751,2.7816,2.7844,2.7913,2.7933,2.8033,2.8052,2.8068,2.8072,2.8068,2.8066,2.8095,2.8087,2.8079,2.8078,2.8077,2.8076,0,2.7312,2.7341,2.7452,2.7516,2.7534,2.7603,2.7658,2.7719,2.7746,2.7833,2.7855,2.7898,2.798,2.801,2.811,2.8123,2.8238,2.8236,2.8217,2.8218,2.8282,2.8275,2.8484,2.8512,2.8346,2.8348,2.8349,0,2.74,2.7467,2.7538,2.7583,2.7619,2.7693,2.7741,2.7763,2.7814,2.7889,2.794,2.8021,2.8087,2.8219,2.8259,2.8336,2.8334,2.8402,2.8346,2.8339,2.8335,2.8331,2.8337,2.8413,2.8414,2.8416,2.8417,0,2.7552,2.7563,2.7632,2.7706,2.7763,2.7822,2.788,2.7918,2.7949,2.8005,2.8088,2.8139,2.8241,2.8322,2.84,2.8436,2.8432,2.8434,2.8453,2.845,2.8436,2.8444,2.8246,2.8429,2.8428,2.8427,2.8427,2.8426,2.7658,2.7717,2.7776,2.7853,2.7898,2.7952,2.8012,2.8046,2.8116,2.8199,2.8208,2.8298,2.8358,2.8462,2.8502,2.8572,2.8554,2.8582,2.8589,2.8595,2.86,2.8425,2.8587,2.8587,2.8586,2.8586,2.8586,0,2.7811,2.7848,2.7918,2.7998,2.8058,2.8048,2.8112,2.8163,2.8241,2.8297,2.8362,2.8457,2.8535,2.8582,2.866,2.8708,2.8708,2.8728,2.8724,2.8733,2.8612,2.8587,2.8726,2.8726,2.8726,2.8726,2.8726,2.8726,2.7897,2.7996,2.8014,2.8137,2.8174,2.826,2.8297,2.8347,2.8392,2.8498,2.8562,2.8592,2.8644,2.8726,2.8797,2.8809,2.8838,2.8859,2.8869,2.8756,2.8741,2.8727,2.8704,2.8865,2.8866,2.8984,2.8985,2.8986]},{"header":{"parameterUnit":"m.s-1","parameterCategory":1,"la1":30.2991,"la2":30.254,"lo1":-89.0895,"lo2":-89.0444,"dy":0.0017,"dx":0.0017,"nx":28,"ny":28,"refTime":"2024-07-30T09:00:00:Z","depth":0,"parameterNumber":3,"parameterNumberName":"V-component_of_WINDS"},"data":[0,0,0,0,0,0,0,0,0,0,0,0,0,0,0,0,0,0,0,0,0,0,0,0,0,0,0,0,0,0,0,0,0,0,0,0,0,0,0,0,0,0,0,0,0,0,0,0,0,0,0,0,0,0,0,0,0,0,-1.2891,-1.2891,0,-1.2914,-1.2915,-1.2915,-1.2902,-1.2901,-1.2901,-1.29,-1.2926,-1.2927,-1.2928,0,0,0,0,0,0,0,0,0,0,0,0,0,-1.2837,-1.2838,-1.2891,-1.2891,-1.2892,-1.2914,-1.2915,-1.2915,-1.2902,-1.2901,-1.2901,-1.29,-1.2925,-1.2927,-1.2928,0,0,0,0,0,0,0,0,0,0,0,0,0,-1.286,-1.2838,-1.2891,-1.2888,-1.2888,-1.2914,-1.2915,-1.2915,-1.2902,-1.2901,-1.29,-1.29,-1.2925,-1.2926,-1.2928,-1.296,0,0,-1.2934,-1.2935,0,0,0,0,0,0,0,0,-1.2859,-1.2862,-1.2888,-1.2888,-1.2888,-1.2904,-1.2905,-1.293,-1.2903,-1.2897,-1.29,-1.2899,-1.2919,-1.2922,-1.2928,-1.2961,-1.2962,-1.2934,-1.2936,-1.2936,-1.2937,0,0,0,0,0,0,0,-1.2857,-1.2861,-1.29,-1.2888,-1.2889,-1.2886,-1.2888,-1.291,-1.2913,-1.2897,-1.2896,-1.2899,-1.2919,-1.2926,-1.2929,-1.2962,-1.2934,-1.2936,-1.2937,-1.2938,-1.3023,-1.3024,0,0,0,0,0,0,-1.2856,-1.286,-1.29,-1.2901,-1.2871,-1.2888,-1.289,-1.29,-1.2913,-1.2914,-1.29,-1.2899,-1.2924,-1.2926,-1.293,-1.2967,-1.2936,-1.2938,-1.2939,-1.3022,-1.3023,-1.3024,0,0,0,0,0,0,-1.2855,-1.2859,-1.2899,-1.288,-1.2885,-1.289,-1.2901,-1.2901,-1.2908,-1.2915,-1.2916,-1.2907,-1.2923,-1.2927,-1.2952,-1.2968,-1.2939,-1.2941,-1.302,-1.3022,-1.3023,-1.3043,0,0,0,0,0,0,-1.2853,-1.2859,-1.287,-1.2881,-1.2886,-1.292,-1.2902,-1.2902,-1.2911,-1.291,-1.2921,-1.2923,-1.2922,-1.295,-1.2954,-1.297,-1.2942,-1.3019,-1.3021,-1.3023,-1.3041,-1.3045,-1.3048,0,0,0,0,0,-1.2851,-1.2875,-1.2871,-1.2876,-1.29,-1.2921,-1.2924,-1.2924,-1.2913,-1.2925,-1.2929,-1.2922,-1.2966,-1.2952,-1.2957,-1.2974,-1.3018,-1.302,-1.3023,-1.3039,-1.3044,-1.3048,0,0,0,0,0,0,-1.2867,-1.2876,-1.2872,-1.29,-1.291,-1.2919,-1.2934,-1.2929,-1.2942,-1.294,-1.2939,-1.2942,-1.2969,-1.2974,-1.2959,-1.3005,-1.299,-1.2994,-1.3001,-1.3006,-1.3009,-1.3007,-1.2944,0,0,0,0,0,-1.2874,-1.2889,-1.2897,-1.2921,-1.2926,-1.2929,-1.2938,-1.2937,-1.2947,-1.2952,-1.2958,-1.2969,-1.2985,-1.2996,-1.3011,-1.3042,-1.3044,-1.3056,-1.306,-1.3063,-1.3066,-1.3083,-1.3088,-1.3032,-1.3032,-1.3032,0,0,-1.2887,-1.2895,-1.2905,-1.2924,-1.2932,-1.2948,-1.2933,-1.2951,-1.2964,-1.2954,-1.2979,-1.2984,-1.2996,-1.3025,-1.3038,-1.303,-1.3082,-1.3066,-1.3068,-1.307,-1.3086,-1.3092,-1.3096,-1.3034,-1.3034,-1.3033,0,0,-1.2921,-1.2928,-1.2949,-1.2957,-1.2968,-1.2971,-1.2976,-1.2986,-1.2989,-1.3013,-1.3007,-1.3023,-1.305,-1.3059,-1.3068,-1.3106,-1.3101,-1.3111,-1.3131,-1.3148,-1.3153,-1.3157,-1.317,-1.3175,-1.3115,-1.3115,-1.3115,0,-1.2937,-1.2961,-1.296,-1.2979,-1.2988,-1.298,-1.3002,-1.301,-1.3026,-1.3033,-1.3024,-1.306,-1.3067,-1.3098,-1.3107,-1.3114,-1.3121,-1.311,-1.3152,-1.3156,-1.316,-1.3173,-1.3178,-1.3116,-1.3116,-1.3116,-1.3115,0,-1.298,-1.2998,-1.3013,-1.3029,-1.304,-1.306,-1.3062,-1.3074,-1.3072,-1.3075,-1.31,-1.311,-1.3127,-1.3134,-1.3132,-1.3165,-1.316,-1.3152,-1.3136,-1.3166,-1.3179,-1.3184,-1.3118,-1.3117,-1.3117,-1.3117,0,0,-1.3024,-1.3039,-1.3044,-1.3052,-1.3065,-1.3078,-1.3099,-1.3115,-1.3125,-1.3137,-1.3154,-1.3179,-1.3171,-1.3181,-1.318,-1.3195,-1.3226,-1.3185,-1.3186,-1.3193,-1.3263,-1.3269,-1.3274,-1.3222,-1.3223,-1.3224,-1.3262,0,-1.3058,-1.3093,-1.3092,-1.3125,-1.3141,-1.3135,-1.3153,-1.3163,-1.3167,-1.3182,-1.3187,-1.3204,-1.3193,-1.3199,-1.3213,-1.3219,-1.324,-1.3216,-1.3239,-1.324,-1.3235,-1.3281,-1.3287,-1.3322,-1.3267,-1.3267,-1.3268,0,-1.3102,-1.3116,-1.3149,-1.3161,-1.3167,-1.3183,-1.3199,-1.3213,-1.3225,-1.3227,-1.3238,-1.3236,-1.3258,-1.3242,-1.3272,-1.3256,-1.3266,-1.327,-1.3271,-1.3273,-1.3255,-1.3284,-1.3333,-1.3338,-1.3276,-1.3275,-1.3275,0,-1.3131,-1.3157,-1.3181,-1.3187,-1.3201,-1.3212,-1.3218,-1.3229,-1.324,-1.3254,-1.3261,-1.3277,-1.3286,-1.33,-1.3302,-1.3291,-1.3333,-1.3317,-1.3335,-1.3335,-1.3344,-1.3343,-1.3395,-1.3351,-1.3351,-1.335,-1.335,0,-1.3169,-1.319,-1.3193,-1.3208,-1.3232,-1.3232,-1.3256,-1.3261,-1.3271,-1.3287,-1.3283,-1.3299,-1.3301,-1.3318,-1.332,-1.3345,-1.3349,-1.3352,-1.3352,-1.3352,-1.3351,-1.3358,-1.3355,-1.3352,-1.3351,-1.3351,-1.3351,0,-1.3204,-1.3207,-1.3232,-1.3243,-1.3247,-1.3264,-1.3274,-1.3288,-1.3292,-1.3313,-1.3317,-1.3324,-1.3343,-1.3347,-1.337,-1.3371,-1.3401,-1.3399,-1.3397,-1.3396,-1.3415,-1.3413,-1.3472,-1.348,-1.343,-1.3431,-1.3431,0,-1.3228,-1.3243,-1.3256,-1.3267,-1.3273,-1.329,-1.3301,-1.3302,-1.3313,-1.3329,-1.3342,-1.336,-1.3375,-1.3406,-1.3414,-1.3431,-1.343,-1.3449,-1.3432,-1.3432,-1.343,-1.3429,-1.3431,-1.3452,-1.3453,-1.3453,-1.3454,0,-1.327,-1.3271,-1.3286,-1.3302,-1.3314,-1.3327,-1.3339,-1.3348,-1.3351,-1.3364,-1.3383,-1.3395,-1.3418,-1.3437,-1.3455,-1.3463,-1.3459,-1.3459,-1.3464,-1.3464,-1.3462,-1.3464,-1.3405,-1.3457,-1.3457,-1.3457,-1.3457,-1.3456,-1.33,-1.3314,-1.3325,-1.3342,-1.3352,-1.3363,-1.3377,-1.3383,-1.3399,-1.3418,-1.3418,-1.344,-1.3452,-1.3476,-1.3485,-1.3502,-1.3496,-1.3503,-1.3505,-1.3507,-1.3509,-1.346,-1.3505,-1.3505,-1.3505,-1.3505,-1.3505,0,-1.3342,-1.3349,-1.3365,-1.3382,-1.3395,-1.3391,-1.3404,-1.3416,-1.3435,-1.3447,-1.3461,-1.3484,-1.3503,-1.3512,-1.3531,-1.3543,-1.3542,-1.3548,-1.3547,-1.3549,-1.3513,-1.3507,-1.3548,-1.3548,-1.3548,-1.3548,-1.3548,-1.3548,-1.3365,-1.3389,-1.3391,-1.342,-1.3427,-1.3448,-1.3456,-1.3467,-1.3477,-1.3502,-1.3517,-1.3523,-1.3534,-1.3554,-1.3571,-1.3573,-1.3581,-1.3587,-1.3589,-1.3555,-1.3551,-1.3547,-1.3541,-1.3589,-1.3589,-1.3623,-1.3623,-1.3624]}]]